User: anonymous   Login
Location: Unspecified
(0.0000°N, 0.0000°E)
Time: 18:53:02
(UTC+00:00)
Language:

PAYLOAD C - Orbit

View from above orbital plane
View from above orbital plane
View from above satellite
View from above satellite

Ground track
Ground track

The orbit data is extracted from the following two-line orbital elements,

1 27842U 03031C   19340.89524248 +.00000033 +00000-0 +34420-4 0  9992
2 27842 098.6835 345.0235 0008560 225.0672 134.9812 14.22240336852751
Epoch (UTC): 06 December 2019 21:29:08
Eccentricity: 0.0008560
inclination: 98.6835°
perigee height: 811 km
apogee height: 824 km
right ascension of ascending node: 345.0235°
argument of perigee: 225.0672°
revolutions per day: 14.22240336
mean anomaly at epoch: 134.9812°
orbit number at epoch: 85275

The dashed part of the orbit path shows where the satellite is in the earth's shadow,  

DLR